Location: Atlanta
(33.7490°N, 84.3880°W)
Time: 10:39:37
(UTC-04:00)

Daily predictions for brighter satellites

Satellite Brightness Start Highest point End
(mag) Time Altitude Azimuth Time Altitude Azimuth Time Altitude Azimuth
Cosmos 1356 Rocket 3.4 21:00:56 10° S 21:05:07 70° E 21:09:23 10° NNE
Cosmos 1782 4.1 21:03:01 10° NNE 21:06:17 23° ENE 21:09:33 10° SE
USA 186 2.1 21:06:57 10° SSE 21:09:56 47° ENE 21:13:05 10° N
ATLAS 5 CENTAUR R/B 2.6 21:03:55 10° NNW 21:10:01 67° ENE 21:16:28 10° SE
Atlas Centaur 2 1.4 21:08:06 10° W 21:11:45 47° S 21:15:10 10° ESE
SL-08 ROCKET BODY 4.5 21:06:59 10° S 21:12:52 58° E 21:18:41 10° NNE
OAO 3 Rocket 3.9 21:10:01 10° SW 21:14:33 36° SSE 21:19:05 10° E
Resurs 01 Rocket 3.4 21:11:43 10° SSW 21:15:40 33° W 21:19:39 10° NNW
CENTAUR R/B 3.2 21:09:01 10° NNW 21:17:04 90° ENE 21:25:25 10° SSE
Cosmos 1939 Rocket 4.4 21:16:57 10° ESE 21:19:45 19° ENE 21:22:35 10° NNE
ISS -3.0 21:17:54 10° SW 21:21:08 71° NW 21:24:22 10° NE
Sich 1 Rocket 4.1 21:17:10 10° SSE 21:21:26 41° E 21:25:44 10° NNE
Cosmos 1408 4.1 21:20:42 10° SE 21:23:16 18° E 21:25:51 10° NE
Meteosat 1 Rocket2 4.1 21:18:39 10° WSW 21:23:33 52° S 21:30:54 10° ESE
COSMOS 2406 3.2 21:26:22 10° NNW 21:32:08 88° ENE 21:37:50 10° SSE
TIMED 4.5 21:28:51 10° S 21:33:10 65° ESE 21:37:29 10° NNE
Cosmos 2278 Rocket 2.4 21:27:46 10° S 21:33:12 48° ESE 21:38:37 10° NNE
Cosmos 1844 Rocket 3.0 21:27:57 10° SSW 21:33:36 75° WNW 21:39:16 10° NNE
Cosmos 1825 3.2 21:30:53 11° SSE 21:33:50 27° E 21:37:06 10° NNE
Coronas F rocket 3.3 21:32:31 10° SW 21:34:54 30° W 21:37:18 10° NNW
Cosmos 2084 3.2 21:32:07 10° SSW 21:36:00 86° WNW 21:39:51 10° NNE
Cosmos 1844 3.7 21:32:54 10° SSW 21:38:39 87° ESE 21:44:28 10° NNE
FENGYUN 3A 4.1 21:34:33 10° S 21:39:52 62° WSW 21:45:13 10° NNW
Cosmos 1174 4.5 21:37:38 10° N 21:40:16 25° ENE 21:41:30 19° E
Meteor 2-10 Rocket 4.0 21:34:58 10° NNW 21:40:44 73° W 21:46:18 10° S
BREEZE-M DEB (TANK) 2.3 21:39:30 10° NW 21:41:33 59° NE 21:43:47 19° ESE
Cosmos 2341 Rocket 4.4 21:36:52 10° SSE 21:42:45 43° E 21:48:36 10° NNE
Cosmos 1908 Rocket 3.6 21:40:55 10° S 21:45:13 59° E 21:49:35 10° NNE
Cosmos 1733 Rocket 3.9 21:42:01 10° SSW 21:46:19 52° W 21:50:36 10° N
Cosmos 1378 Rocket 4.1 21:46:09 10° N 21:50:10 38° E 21:52:23 22° SE
COS B Rocket 3.7 21:46:53 10° NNE 21:50:30 36° E 21:51:56 25° SE
PSLV R/B 3.7 21:47:44 10° WNW 21:51:05 53° SSW 21:52:45 26° SE
Abrixas 3.8 21:48:31 10° SSW 21:50:21 23° SSE 21:50:21 23° SSE
Cosmos 2082 Rocket 4.0 21:53:10 10° NNE 21:56:36 16° NE 21:58:57 13° E
CZ-4 DEB 3.5 21:56:27 12° S 21:59:11 49° W 22:02:17 10° NNW
SL-27 R/B 3.4 21:56:13 10° NNW 21:59:42 48° WSW 22:02:32 14° S
Nimbus 7 Rocket 4.4 21:54:29 10° NNE 22:00:24 64° ESE 22:06:20 10° S
deb Chang Zheng 4 3.5 21:56:11 10° NNE 22:00:37 75° E 22:05:02 10° S
GPS 2-05 Rocket1 3.2 22:01:38 10° W 22:05:20 66° N 22:07:25 23° ENE
Cosmos 2154 Rocket 4.0 22:01:25 10° S 22:07:37 89° W 22:13:51 10° N
EO 1 Delta rocket 4.0 22:03:10 10° N 22:08:54 80° E 22:13:38 10° S
Cosmos 2297 3.9 22:04:02 10° S 22:09:27 48° ESE 22:14:57 10° NNE
Envisat 2.9 22:09:02 23° SSE 22:12:17 78° ENE 22:17:22 10° N
Cosmos 1862 3.6 22:09:43 10° SSW 22:13:45 69° W 22:17:50 10° N
H-2A R/B 1.9 22:12:33 29° SSE 22:14:41 79° ENE 22:18:56 10° N
SEDSat Delta rocket 3.2 22:12:01 10° WSW 22:16:11 43° SSE 22:16:42 41° SE
CZ-3C R/B 3.5 21:50:06 10° WSW 22:20:19 35° S 22:23:56 26° SSE
APEX 3.2 22:17:49 19° SSW 22:20:21 79° ESE 22:25:03 10° NNE
OAO 1 Rocket 4.3 22:16:44 10° WSW 22:22:03 84° SSE 22:25:17 24° E
Cosmos 1606 3.2 22:19:01 10° NNW 22:22:53 58° W 22:24:55 25° SSW
COSMOS 2487 2.4 22:19:24 10° N 22:23:01 70° ENE 22:23:26 61° ESE
Cosmos 1420 Rocket 3.9 22:18:52 10° SSW 22:24:07 88° WNW 22:29:23 10° NNE
ERS-1 Rocket 3.8 22:22:47 14° S 22:26:57 48° W 22:31:49 10° NNW
MetOp-B 4.2 22:25:26 36° SE 22:27:29 61° ENE 22:32:45 10° N
CZ-4 SHROUD 3.9 22:32:36 44° NNE 22:32:36 44° NNE 22:34:59 10° N
PSLV R/B 3.9 22:33:20 42° NNE 22:33:20 42° NNE 22:35:29 10° N
Meteor 1-27 Rocket 4.2 22:28:41 10° NNW 22:34:06 57° W 22:37:56 19° SSW
Cosmos 2366 rocket 4.3 22:32:20 37° SE 22:34:10 46° E 22:40:10 10° NNE
Cosmos 1140 Rocket 3.4 22:33:08 10° NNW 22:38:17 75° ENE 22:39:35 50° SE
Okean 3 3.7 22:35:44 10° NNW 22:39:58 67° W 22:41:10 44° SSW
H-2A R/B 3.4 22:42:14 25° ENE 22:42:31 25° ENE 22:46:48 10° NNE
USA 234 3.7 22:37:49 10° ENE 22:43:02 37° ESE 22:43:02 37° ESE
ARGOS 3.3 22:46:31 50° ESE 22:47:23 56° ENE 22:52:37 10° N
Okean 2 Rocket 3.8 22:45:11 23° SSW 22:47:40 52° W 22:51:58 10° N
Timation 1 Rocket 4.4 22:46:57 48° SE 22:47:41 51° ESE 22:53:28 10° NNE
CZ-4B R/B 3.2 22:44:23 10° NNE 22:49:17 80° ESE 22:50:13 58° S
SL-08 RB Rocket 4.2 22:49:27 45° ENE 22:49:27 45° ENE 22:53:45 10° N
YAOGAN 6 3.2 22:56:01 54° NW 22:56:01 54° NW 22:58:56 10° NNW
Terra 3.2 22:56:47 25° ENE 22:56:47 25° ENE 23:00:02 10° NNE
SPOT 1/Viking Rocket 3.4 22:57:07 66° SSE 22:57:52 82° ENE 23:03:06 10° N
OAO 3 Rocket 3.1 22:52:57 10° WSW 22:57:55 88° SSE 22:58:14 79° E
Cosmos 1242 Rocket 3.2 22:54:47 10° NNW 22:58:02 54° WNW 22:58:02 54° WNW
Atlas Centaur 2 3.4 22:57:08 10° WSW 22:57:58 15° WSW 22:57:58 15° WSW
Meteor 1-20 Rocket 4.4 23:01:01 50° E 23:01:01 50° E 23:06:04 10° NNE
Cosmos 2218 Rocket 4.0 23:00:21 37° S 23:03:06 85° W 23:09:33 10° N
SPOT 5 4.0 23:04:32 31° SSW 23:06:28 43° W 23:11:33 10° NNW
Meteor 1-25 Rocket 4.1 23:15:14 73° S 23:15:51 86° E 23:21:42 10° N
Meteor 2-19 Rocket 4.3 23:16:38 71° SSE 23:17:13 79° E 23:23:21 10° N
Cosmos 1833 Rocket 2.8 23:11:59 10° NNW 23:17:28 61° ENE 23:17:28 61° ENE
DNEPR-1 R/B 4.2 23:14:44 10° NW 23:19:11 55° W 23:19:11 55° W
Cosmos 1850 Rocket 4.3 23:14:38 10° NNW 23:19:51 59° WSW 23:20:15 57° WSW
Lacrosse 5 3.9 23:25:04 17° NE 23:25:04 17° NE 23:26:12 10° NE
Cosmos 1727 Rocket 3.8 23:15:46 10° N 23:21:57 81° E 23:22:23 76° SE
Cosmos 1536 Rocket 4.4 23:25:47 10° N 23:29:10 50° NNW 23:29:10 50° NNW
Meteor 2-8 Rocket 4.3 23:26:12 10° N 23:32:23 83° W 23:32:43 79° SW
USA 229 DEB 3.6 23:25:37 10° NNW 23:32:47 78° ENE 23:33:32 70° ESE
USA 229 3.6 23:25:43 10° NNW 23:32:53 77° ENE 23:33:38 70° ESE
Meteor 1-18 Rocket 4.4 23:32:41 10° NNW 23:38:36 73° W 23:38:39 73° W
BREEZE-M DEB (TANK) 3.6 23:32:35 10° NW 23:38:18 49° WNW 23:38:18 49° WNW
ASTEX 1 4.5 23:35:07 10° NNE 23:38:13 37° NNE 23:38:13 37° NNE
Cosmos 2082 Rocket 2.4 23:35:32 10° NNW 23:40:49 62° W 23:40:49 62° W
Cosmos 1331 Rocket 4.5 23:43:57 57° NW 23:43:57 57° NW 23:48:28 10° N
Cosmos 1339 Rocket 4.4 23:38:42 10° N 23:44:51 80° W 23:44:51 80° W
